| time (UTC) | temp C | wind direction | speed KPH | gust KPH | rain 1hr cm | rain 24hr cm | rain mn cm | humidity % | barometer mb |
| 20260905173154 | 25 | 50 | 17.7 | 17.7 | 0.00 | 0.00 | 0.00 | 96 | 1016.0 |
| 20260905172651 | 25 | 50 | 17.7 | 17.7 | 0.00 | 0.00 | 0.00 | 96 | 1016.0 |
| 20260905172150 | 26 | 50 | 17.7 | 17.7 | 0.00 | 0.00 | 0.00 | 96 | 1016.0 |
| 20260905171648 | 26 | 50 | 17.7 | 17.7 | 0.00 | 0.00 | 0.00 | 96 | 1016.0 |
| 20260905171147 | 26 | 50 | 20.9 | 20.9 | 0.00 | 0.00 | 0.00 | 95 | 1016.0 |
| 20260905170645 | 26 | 50 | 20.9 | 20.9 | 0.00 | 0.00 | 0.00 | 95 | 1016.0 |
| 20260905170144 | 26 | 50 | 20.9 | 20.9 | 0.00 | 0.00 | 0.00 | 95 | 1016.0 |
| 20260905165642 | 26 | 50 | 20.9 | 20.9 | 0.00 | 0.00 | 0.00 | 95 | 1016.0 |
| 20260905165141 | 26 | 50 | 20.9 | 20.9 | 0.00 | 0.00 | 0.00 | 88 | 1016.0 |
| 20260905164639 | 26 | 50 | 20.9 | 20.9 | 0.00 | 0.00 | 0.00 | 88 | 1016.0 |
| 20260905164138 | 26 | 50 | 20.9 | 20.9 | 0.00 | 0.00 | 0.00 | 88 | 1016.0 |
| 20260905163635 | 26 | 50 | 20.9 | 20.9 | 0.00 | 0.00 | 0.00 | 95 | 1016.0 |
| 20260905163133 | 26 | 50 | 20.9 | 20.9 | 0.00 | 0.00 | 0.00 | 95 | 1016.0 |
| 20260905162632 | 27 | 50 | 20.9 | 20.9 | 0.00 | 0.00 | 0.00 | 93 | 1016.0 |
| 20260905162131 | 27 | 50 | 20.9 | 20.9 | 0.00 | 0.00 | 0.00 | 93 | 1016.0 |
| 20260905161628 | 27 | 50 | 20.9 | 20.9 | 0.00 | 0.00 | 0.00 | 90 | 1016.0 |
| 20260905161126 | 27 | 50 | 20.9 | 20.9 | 0.00 | 0.00 | 0.00 | 90 | 1016.0 |
| 20260905160624 | 27 | 50 | 20.9 | 20.9 | 0.00 | 0.00 | 0.00 | 90 | 1016.0 |
| 20260905160123 | 27 | 60 | 19.3 | 19.3 | 0.00 | 0.00 | 0.00 | 90 | 1016.0 |
| 20260905155621 | 27 | 60 | 19.3 | 19.3 | 0.00 | 0.00 | 0.00 | 90 | 1016.0 |
| 20260905155120 | 27 | 60 | 19.3 | 19.3 | 0.00 | 0.00 | 0.00 | 69 | 1016.0 |
| 20260905154618 | 27 | 60 | 19.3 | 19.3 | 0.00 | 0.00 | 0.00 | 69 | 1016.0 |
| 20260905154116 | 27 | 60 | 19.3 | 19.3 | 0.00 | 0.00 | 0.00 | 86 | 1016.0 |
| 20260905153614 | 27 | 60 | 19.3 | 19.3 | 0.00 | 0.00 | 0.00 | 86 | 1016.0 |
| 20260905153111 | 27 | 60 | 20.9 | 20.9 | 0.00 | 0.00 | 0.00 | 84 | 1016.0 |
| 20260905152610 | 27 | 60 | 20.9 | 20.9 | 0.00 | 0.00 | 0.00 | 84 | 1016.0 |
| 20260905152108 | 28 | 60 | 20.9 | 20.9 | 0.00 | 0.00 | 0.00 | 85 | 1016.0 |
| 20260905151606 | 28 | 60 | 20.9 | 20.9 | 0.00 | 0.00 | 0.00 | 85 | 1016.0 |
| 20260905151104 | 28 | 60 | 25.7 | 25.7 | 0.00 | 0.00 | 0.00 | 72 | 1016.0 |
| 20260905150602 | 28 | 60 | 25.7 | 25.7 | 0.00 | 0.00 | 0.00 | 72 | 1016.0 |
| 20260905150100 | 28 | 60 | 25.7 | 25.7 | 0.00 | 0.00 | 0.00 | 67 | 1016.0 |
| 20260905145559 | 29 | 60 | 25.7 | 25.7 | 0.00 | 0.00 | 0.00 | 34 | 1016.0 |
| 20260905145057 | 29 | 60 | 25.7 | 25.7 | 0.00 | 0.00 | 0.00 | 34 | 1016.0 |
| 20260905144556 | 29 | 60 | 25.7 | 25.7 | 0.00 | 0.00 | 0.00 | 39 | 1016.0 |
| 20260905144055 | 29 | 60 | 25.7 | 25.7 | 0.00 | 0.00 | 0.00 | 49 | 1016.0 |
| 20260905143553 | 29 | 40 | 20.9 | 20.9 | 0.00 | 0.00 | 0.00 | 72 | 1016.0 |
| 20260905143050 | 29 | 40 | 20.9 | 20.9 | 0.00 | 0.00 | 0.00 | 72 | 1016.0 |
| 20260905142548 | 29 | 40 | 20.9 | 20.9 | 0.00 | 0.00 | 0.00 | 72 | 1016.0 |
| 20260905142046 | 29 | 40 | 20.9 | 20.9 | 0.00 | 0.00 | 0.00 | 72 | 1016.0 |
| 20260905141544 | 29 | 40 | 20.9 | 20.9 | 0.00 | 0.00 | 0.00 | 73 | 1016.0 |
| 20260905141039 | 29 | 40 | 20.9 | 20.9 | 0.00 | 0.00 | 0.00 | 73 | 1016.0 |
| 20260905140537 | 29 | 50 | 20.9 | 20.9 | 0.00 | 0.00 | 0.00 | 71 | 1016.0 |
| 20260905140036 | 29 | 50 | 20.9 | 20.9 | 0.00 | 0.00 | 0.00 | 71 | 1016.0 |
| 20260905135535 | 29 | 50 | 20.9 | 20.9 | 0.00 | 0.00 | 0.00 | 71 | 1016.0 |
| 20260905135033 | 29 | 50 | 20.9 | 20.9 | 0.00 | 0.00 | 0.00 | 71 | 1016.0 |
| 20260905134532 | 29 | 50 | 20.9 | 20.9 | 0.00 | 0.00 | 0.00 | 70 | 1016.0 |
| 20260905134030 | 29 | 50 | 20.9 | 20.9 | 0.00 | 0.00 | 0.00 | 70 | 1016.0 |
| 20260905133529 | 29 | 50 | 20.9 | 20.9 | 0.00 | 0.00 | 0.00 | 70 | 1016.0 |
| 20260905133028 | 29 | 30 | 20.9 | 20.9 | 0.00 | 0.00 | 0.00 | 67 | 1016.0 |
| 20260905132527 | 29 | 30 | 20.9 | 20.9 | 0.00 | 0.00 | 0.00 | 67 | 1016.0 |
| 20260905132026 | 29 | 30 | 20.9 | 20.9 | 0.00 | 0.00 | 0.00 | 69 | 1016.0 |
| 20260905131524 | 29 | 30 | 20.9 | 20.9 | 0.00 | 0.00 | 0.00 | 69 | 1016.0 |
| 20260905131022 | 29 | 30 | 20.9 | 20.9 | 0.00 | 0.00 | 0.00 | 69 | 1016.0 |
| 20260905130520 | 29 | 60 | 20.9 | 20.9 | 0.00 | 0.00 | 0.00 | 71 | 1016.0 |
| 20260905130017 | 29 | 60 | 20.9 | 20.9 | 0.00 | 0.00 | 0.00 | 71 | 1016.0 |
| 20260905125515 | 29 | 60 | 20.9 | 20.9 | 0.00 | 0.00 | 0.00 | 71 | 1016.0 |
| 20260905125012 | 29 | 60 | 20.9 | 20.9 | 0.00 | 0.00 | 0.00 | 71 | 1016.0 |
| 20260905124510 | 29 | 60 | 20.9 | 20.9 | 0.00 | 0.00 | 0.00 | 70 | 1016.0 |
| 20260905124008 | 29 | 60 | 20.9 | 20.9 | 0.00 | 0.00 | 0.00 | 70 | 1016.0 |
| 20260905123506 | 30 | 50 | 20.9 | 20.9 | 0.00 | 0.00 | 0.00 | 71 | 1016.0 |
| 20260905123006 | 30 | 50 | 20.9 | 20.9 | 0.00 | 0.00 | 0.00 | 71 | 1016.0 |
| 20260905122504 | 30 | 50 | 20.9 | 20.9 | 0.00 | 0.00 | 0.00 | 71 | 1017.0 |
| 20260905122003 | 30 | 50 | 20.9 | 20.9 | 0.00 | 0.00 | 0.00 | 71 | 1017.0 |
| 20260905121501 | 30 | 50 | 20.9 | 20.9 | 0.00 | 0.00 | 0.00 | 70 | 1017.0 |
| 20260905120958 | 30 | 50 | 20.9 | 20.9 | 0.00 | 0.00 | 0.00 | 70 | 1017.0 |
| 20260905120457 | 30 | 50 | 22.5 | 22.5 | 0.00 | 0.00 | 0.00 | 70 | 1016.0 |
| 20260905115956 | 30 | 50 | 22.5 | 22.5 | 0.00 | 0.00 | 0.00 | 67 | 1016.0 |
| 20260905115454 | 30 | 50 | 22.5 | 22.5 | 0.00 | 0.00 | 0.00 | 67 | 1016.0 |
| 20260905114953 | 30 | 50 | 22.5 | 22.5 | 0.00 | 0.00 | 0.00 | 67 | 1016.0 |
| 20260905114452 | 30 | 50 | 22.5 | 22.5 | 0.00 | 0.00 | 0.00 | 67 | 1016.0 |
| 20260905113950 | 30 | 50 | 22.5 | 22.5 | 0.00 | 0.00 | 0.00 | 68 | 1016.0 |
| 20260905113448 | 29 | 230 | 9.7 | 9.7 | 0.00 | 0.00 | 0.00 | 78 | 1017.0 |
| 20260905112946 | 29 | 230 | 9.7 | 9.7 | 0.00 | 0.00 | 0.00 | 78 | 1017.0 |
| 20260905112444 | 29 | 230 | 9.7 | 9.7 | 0.00 | 0.00 | 0.00 | 78 | 1017.0 |
| 20260905111942 | 28 | 230 | 9.7 | 9.7 | 0.00 | 0.00 | 0.00 | 78 | 1017.0 |
| 20260905111439 | 28 | 230 | 9.7 | 9.7 | 0.00 | 0.00 | 0.00 | 79 | 1017.0 |
| 20260905110937 | 28 | 230 | 9.7 | 9.7 | 0.00 | 0.00 | 0.00 | 79 | 1017.0 |
| 20260905110436 | 29 | 150 | 9.7 | 9.7 | 0.00 | 0.00 | 0.00 | 81 | 1017.0 |
| 20260905105934 | 29 | 150 | 9.7 | 9.7 | 0.00 | 0.00 | 0.00 | 89 | 1017.0 |
| 20260905105433 | 29 | 150 | 9.7 | 9.7 | 0.00 | 0.00 | 0.00 | 89 | 1017.0 |
| 20260905104930 | 29 | 150 | 9.7 | 9.7 | 0.00 | 0.00 | 0.00 | 88 | 1017.0 |
| 20260905104428 | 28 | 150 | 9.7 | 9.7 | 0.00 | 0.00 | 0.00 | 83 | 1017.0 |
| 20260905103927 | 28 | 150 | 9.7 | 9.7 | 0.00 | 0.00 | 0.00 | 83 | 1017.0 |
| 20260905103423 | 26 | 150 | 9.7 | 9.7 | 0.00 | 0.00 | 0.00 | 61 | 1017.0 |
| 20260905102922 | 26 | 150 | 9.7 | 9.7 | 0.00 | 0.00 | 0.00 | 61 | 1017.0 |
| 20260905102421 | 26 | 150 | 9.7 | 9.7 | 0.00 | 0.00 | 0.00 | 61 | 1017.0 |
| 20260905101920 | 26 | 150 | 9.7 | 9.7 | 0.00 | 0.00 | 0.00 | 61 | 1017.0 |
| 20260905101417 | 26 | 170 | 12.9 | 12.9 | 0.00 | 0.00 | 0.00 | 69 | 1017.0 |
| 20260905100915 | 26 | 170 | 12.9 | 12.9 | 0.00 | 0.00 | 0.00 | 69 | 1017.0 |
| 20260905100414 | 26 | 170 | 12.9 | 12.9 | 0.00 | 0.00 | 0.00 | 69 | 1017.0 |
| 20260905095911 | 25 | 170 | 12.9 | 12.9 | 0.00 | 0.00 | 0.00 | 69 | 1017.0 |
| 20260905095409 | 25 | 170 | 12.9 | 12.9 | 0.00 | 0.00 | 0.00 | 69 | 1017.0 |
| 20260905094907 | 25 | 170 | 12.9 | 12.9 | 0.00 | 0.00 | 0.00 | 69 | 1017.0 |
| 20260905094403 | 25 | 170 | 12.9 | 12.9 | 0.00 | 0.00 | 0.00 | 69 | 1017.0 |
| 20260905093902 | 24 | 170 | 9.7 | 9.7 | 0.00 | 0.00 | 0.00 | 73 | 1017.0 |
| 20260905093359 | 24 | 170 | 9.7 | 9.7 | 0.00 | 0.00 | 0.00 | 73 | 1017.0 |
| 20260905092857 | 24 | 170 | 9.7 | 9.7 | 0.00 | 0.00 | 0.00 | 74 | 1018.0 |
| 20260905092356 | 24 | 170 | 9.7 | 9.7 | 0.00 | 0.00 | 0.00 | 74 | 1018.0 |
| 20260905091854 | 24 | 170 | 9.7 | 9.7 | 0.00 | 0.00 | 0.00 | 74 | 1018.0 |
| 20260905091352 | 24 | 170 | 9.7 | 9.7 | 0.00 | 0.00 | 0.00 | 76 | 1018.0 |
| 20260905090851 | 24 | 170 | 9.7 | 9.7 | 0.00 | 0.00 | 0.00 | 76 | 1018.0 |
| 20260905090350 | 24 | 140 | 12.9 | 12.9 | 0.00 | 0.00 | 0.00 | 80 | 1018.0 |
| 20260905085848 | 25 | 140 | 12.9 | 12.9 | 0.00 | 0.00 | 0.00 | 89 | 1018.0 |
| 20260905085347 | 25 | 140 | 12.9 | 12.9 | 0.00 | 0.00 | 0.00 | 89 | 1018.0 |
| 20260905084844 | 25 | 140 | 12.9 | 12.9 | 0.00 | 0.00 | 0.00 | 90 | 1018.0 |
| 20260905084342 | 25 | 150 | 12.9 | 12.9 | 0.00 | 0.00 | 0.00 | 91 | 1018.0 |
| 20260905083839 | 25 | 150 | 12.9 | 12.9 | 0.00 | 0.00 | 0.00 | 91 | 1018.0 |
| 20260905083338 | 26 | 150 | 12.9 | 12.9 | 0.00 | 0.00 | 0.00 | 95 | 1018.0 |
| 20260905082836 | 25 | 150 | 12.9 | 12.9 | 0.00 | 0.00 | 0.00 | 89 | 1018.0 |
| 20260905082334 | 25 | 150 | 12.9 | 12.9 | 0.00 | 0.00 | 0.00 | 89 | 1018.0 |
| 20260905081832 | 25 | 150 | 12.9 | 12.9 | 0.00 | 0.00 | 0.00 | 89 | 1018.0 |
| 20260905081331 | 25 | 150 | 12.9 | 12.9 | 0.00 | 0.00 | 0.00 | 89 | 1018.0 |
| 20260905080830 | 25 | 110 | 12.9 | 12.9 | 0.00 | 0.00 | 0.00 | 89 | 1018.0 |
| 20260905080328 | 25 | 110 | 12.9 | 12.9 | 0.00 | 0.00 | 0.00 | 89 | 1018.0 |
| 20260905075827 | 25 | 110 | 12.9 | 12.9 | 0.00 | 0.00 | 0.00 | 89 | 1018.0 |
| 20260905075326 | 25 | 110 | 12.9 | 12.9 | 0.00 | 0.00 | 0.00 | 89 | 1018.0 |
| 20260905074823 | 25 | 110 | 12.9 | 12.9 | 0.00 | 0.00 | 0.00 | 89 | 1018.0 |
| 20260905074322 | 25 | 110 | 12.9 | 12.9 | 0.00 | 0.00 | 0.00 | 89 | 1018.0 |
| 20260905073820 | 25 | 110 | 12.9 | 12.9 | 0.00 | 0.00 | 0.00 | 89 | 1018.0 |
| 20260905073317 | 25 | 80 | 9.7 | 9.7 | 0.00 | 0.00 | 0.00 | 87 | 1018.0 |
| 20260905072815 | 25 | 80 | 9.7 | 9.7 | 0.00 | 0.00 | 0.00 | 86 | 1018.0 |
| 20260905072312 | 25 | 80 | 9.7 | 9.7 | 0.00 | 0.00 | 0.00 | 83 | 1018.0 |
| 20260905071809 | 25 | 80 | 9.7 | 9.7 | 0.00 | 0.00 | 0.00 | 83 | 1018.0 |
| 20260905071308 | 24 | 80 | 9.7 | 9.7 | 0.00 | 0.00 | 0.00 | 69 | 1018.0 |
| 20260905070806 | 24 | 80 | 9.7 | 9.7 | 0.00 | 0.00 | 0.00 | 69 | 1018.0 |
| 20260905070304 | 24 | 40 | 16.1 | 16.1 | 0.00 | 0.00 | 0.00 | 65 | 1018.0 |
| 20260905065802 | 24 | 40 | 16.1 | 16.1 | 0.00 | 0.00 | 0.00 | 65 | 1018.0 |
| 20260905065300 | 24 | 40 | 16.1 | 16.1 | 0.00 | 0.00 | 0.00 | 65 | 1018.0 |
| 20260905064757 | 24 | 40 | 16.1 | 16.1 | 0.00 | 0.00 | 0.00 | 65 | 1018.0 |
| 20260905064255 | 24 | 40 | 16.1 | 16.1 | 0.00 | 0.00 | 0.00 | 65 | 1018.0 |
| 20260905063753 | 24 | 40 | 16.1 | 16.1 | 0.00 | 0.00 | 0.00 | 65 | 1018.0 |
| 20260905063252 | 24 | 50 | 16.1 | 16.1 | 0.00 | 0.00 | 0.00 | 65 | 1018.0 |
| 20260905062750 | 24 | 50 | 16.1 | 16.1 | 0.00 | 0.00 | 0.00 | 65 | 1018.0 |
| 20260905062249 | 24 | 50 | 16.1 | 16.1 | 0.00 | 0.00 | 0.00 | 65 | 1018.0 |
| 20260905061747 | 24 | 50 | 16.1 | 16.1 | 0.00 | 0.00 | 0.00 | 65 | 1018.0 |
| 20260905061244 | 24 | 50 | 16.1 | 16.1 | 0.00 | 0.00 | 0.00 | 65 | 1018.0 |
| 20260905060742 | 24 | 50 | 16.1 | 16.1 | 0.00 | 0.00 | 0.00 | 65 | 1018.0 |
| 20260905060239 | 23 | 40 | 9.7 | 9.7 | 0.00 | 0.00 | 0.00 | 78 | 1018.0 |
| 20260905055737 | 23 | 40 | 9.7 | 9.7 | 0.00 | 0.00 | 0.00 | 96 | 1018.0 |
| 20260905055229 | 23 | 40 | 9.7 | 9.7 | 0.00 | 0.00 | 0.00 | 96 | 1018.0 |
| 20260905054727 | 23 | 40 | 9.7 | 9.7 | 0.00 | 0.00 | 0.00 | 96 | 1018.0 |
| 20260905054224 | 23 | 40 | 9.7 | 9.7 | 0.00 | 0.00 | 0.00 | 96 | 1018.0 |
| 20260905053722 | 22 | 30 | 6.4 | 6.4 | 0.00 | 0.00 | 0.00 | 83 | 1018.0 |
| 20260905053220 | 22 | 30 | 6.4 | 6.4 | 0.00 | 0.00 | 0.00 | 83 | 1018.0 |
| 20260905052719 | 22 | 30 | 6.4 | 6.4 | 0.00 | 0.00 | 0.00 | 83 | 1018.0 |
| 20260905052216 | 22 | 30 | 6.4 | 6.4 | 0.00 | 0.00 | 0.00 | 83 | 1018.0 |
| 20260905051709 | 22 | 30 | 6.4 | 6.4 | 0.00 | 0.00 | 0.00 | 83 | 1018.0 |
| 20260905051208 | 22 | 30 | 6.4 | 6.4 | 0.00 | 0.00 | 0.00 | 83 | 1018.0 |
| 20260905050707 | 22 | 30 | 6.4 | 6.4 | 0.00 | 0.00 | 0.00 | 83 | 1018.0 |
| 20260905050204 | 21 | 360 | 6.4 | 6.4 | 0.00 | 0.00 | 0.00 | 98 | 1018.0 |
| 20260905045701 | 21 | 360 | 6.4 | 6.4 | 0.00 | 0.00 | 0.00 | 98 | 1018.0 |
| 20260905045200 | 21 | 360 | 6.4 | 6.4 | 0.00 | 0.00 | 0.00 | 98 | 1017.0 |
| 20260905044658 | 21 | 360 | 6.4 | 6.4 | 0.00 | 0.00 | 0.00 | 98 | 1017.0 |
| 20260905044157 | 20 | 360 | 6.4 | 6.4 | 0.00 | 0.00 | 0.00 | 98 | 1017.0 |
| 20260905043656 | 20 | 360 | 6.4 | 6.4 | 0.00 | 0.00 | 0.00 | 98 | 1017.0 |
| 20260905043154 | 20 | 30 | 3.2 | 3.2 | 0.00 | 0.00 | 0.00 | 99 | 1017.0 |
| 20260905042652 | 20 | 30 | 3.2 | 3.2 | 0.00 | 0.00 | 0.00 | 99 | 1017.0 |
| 20260905042150 | 20 | 30 | 3.2 | 3.2 | 0.00 | 0.00 | 0.00 | 99 | 1017.0 |
| 20260905041649 | 20 | 30 | 3.2 | 3.2 | 0.00 | 0.00 | 0.00 | 99 | 1017.0 |
| 20260905041148 | 20 | 30 | 3.2 | 3.2 | 0.00 | 0.00 | 0.00 | 99 | 1017.0 |
| 20260905040646 | 20 | 30 | 3.2 | 3.2 | 0.00 | 0.00 | 0.00 | 99 | 1017.0 |
| 20260905040144 | 20 | 50 | 6.4 | 6.4 | 0.00 | 0.00 | 0.00 | 99 | 1017.0 |
| 20260905035642 | 20 | 50 | 6.4 | 6.4 | 0.00 | 0.00 | 0.00 | 99 | 1017.0 |
| 20260905035141 | 20 | 50 | 6.4 | 6.4 | 0.00 | 0.00 | 0.00 | 99 | 1017.0 |
| 20260905034638 | 20 | 50 | 6.4 | 6.4 | 0.00 | 0.00 | 0.00 | 99 | 1017.0 |
| 20260905034137 | 20 | 50 | 6.4 | 6.4 | 0.00 | 0.00 | 0.00 | 99 | 1017.0 |
| 20260905033636 | 20 | 50 | 6.4 | 6.4 | 0.00 | 0.00 | 0.00 | 99 | 1017.0 |
| 20260905033134 | 20 | 60 | 6.4 | 6.4 | 0.00 | 0.00 | 0.00 | 98 | 1017.0 |
| 20260905032632 | 20 | 60 | 6.4 | 6.4 | 0.00 | 0.00 | 0.00 | 98 | 1017.0 |
| 20260905032131 | 20 | 60 | 6.4 | 6.4 | 0.00 | 0.00 | 0.00 | 98 | 1017.0 |
| 20260905031630 | 20 | 60 | 6.4 | 6.4 | 0.00 | 0.00 | 0.00 | 98 | 1017.0 |
| 20260905031129 | 20 | 60 | 6.4 | 6.4 | 0.00 | 0.00 | 0.00 | 98 | 1017.0 |
| 20260905030626 | 20 | 0 | 3.2 | 3.2 | 0.00 | 0.00 | 0.00 | 98 | 1017.0 |
| 20260905030123 | 20 | 0 | 3.2 | 3.2 | 0.00 | 0.00 | 0.00 | 98 | 1017.0 |
| 20260905025621 | 20 | 0 | 3.2 | 3.2 | 0.00 | 0.00 | 0.00 | 98 | 1017.0 |
| 20260905025119 | 20 | 0 | 3.2 | 3.2 | 0.00 | 0.00 | 0.00 | 98 | 1017.0 |
| 20260905024617 | 20 | 0 | 3.2 | 3.2 | 0.00 | 0.00 | 0.00 | 98 | 1017.0 |
| 20260905024115 | 20 | 0 | 3.2 | 3.2 | 0.00 | 0.00 | 0.00 | 98 | 1017.0 |
| 20260905023613 | 20 | 360 | 3.2 | 3.2 | 0.00 | 0.00 | 0.00 | 98 | 1017.0 |
| 20260905023111 | 20 | 360 | 3.2 | 3.2 | 0.00 | 0.00 | 0.00 | 98 | 1017.0 |
| 20260905022609 | 20 | 360 | 3.2 | 3.2 | 0.00 | 0.00 | 0.00 | 98 | 1017.0 |
| 20260905022107 | 20 | 360 | 3.2 | 3.2 | 0.00 | 0.00 | 0.00 | 98 | 1017.0 |
| 20260905021606 | 20 | 360 | 3.2 | 3.2 | 0.00 | 0.00 | 0.00 | 98 | 1017.0 |
| 20260905021105 | 20 | 360 | 3.2 | 3.2 | 0.00 | 0.00 | 0.00 | 98 | 1017.0 |
| 20260905020603 | 20 | 0 | 3.2 | 3.2 | 0.00 | 0.00 | 0.00 | 98 | 1017.0 |
| 20260905015600 | 20 | 0 | 3.2 | 3.2 | 0.00 | 0.00 | 0.00 | 98 | 1017.0 |
| 20260905015058 | 20 | 0 | 3.2 | 3.2 | 0.00 | 0.00 | 0.00 | 98 | 1017.0 |
| 20260905014555 | 20 | 0 | 3.2 | 3.2 | 0.00 | 0.00 | 0.00 | 98 | 1017.0 |
| 20260905014051 | 20 | 0 | 3.2 | 3.2 | 0.00 | 0.00 | 0.00 | 98 | 1017.0 |
| 20260905013549 | 21 | 20 | 6.4 | 6.4 | 0.00 | 0.00 | 0.00 | 97 | 1017.0 |
| 20260905013046 | 21 | 20 | 6.4 | 6.4 | 0.00 | 0.00 | 0.00 | 97 | 1017.0 |
| 20260905012544 | 21 | 20 | 6.4 | 6.4 | 0.00 | 0.00 | 0.00 | 97 | 1017.0 |
| 20260905012042 | 21 | 20 | 6.4 | 6.4 | 0.00 | 0.00 | 0.00 | 97 | 1017.0 |
| 20260905011540 | 21 | 20 | 6.4 | 6.4 | 0.00 | 0.00 | 0.00 | 97 | 1017.0 |
| 20260905011038 | 21 | 20 | 6.4 | 6.4 | 0.00 | 0.00 | 0.00 | 97 | 1017.0 |
| 20260905010536 | 21 | 20 | 8.0 | 8.0 | 0.00 | 0.00 | 0.00 | 97 | 1017.0 |
| 20260905010035 | 21 | 20 | 8.0 | 8.0 | 0.00 | 0.00 | 0.00 | 97 | 1017.0 |
| 20260905005531 | 21 | 20 | 8.0 | 8.0 | 0.00 | 0.00 | 0.00 | 97 | 1017.0 |
| 20260905005029 | 21 | 20 | 8.0 | 8.0 | 0.00 | 0.00 | 0.00 | 97 | 1017.0 |
| 20260905004525 | 21 | 20 | 8.0 | 8.0 | 0.00 | 0.00 | 0.00 | 97 | 1017.0 |
| 20260905004023 | 21 | 20 | 8.0 | 8.0 | 0.00 | 0.00 | 0.00 | 97 | 1017.0 |
| 20260905003517 | 21 | 40 | 6.4 | 6.4 | 0.00 | 0.00 | 0.00 | 97 | 1016.0 |
| 20260905003016 | 21 | 40 | 6.4 | 6.4 | 0.00 | 0.00 | 0.00 | 97 | 1016.0 |
| 20260905002515 | 21 | 40 | 6.4 | 6.4 | 0.00 | 0.00 | 0.00 | 97 | 1016.0 |
| 20260905002014 | 21 | 40 | 6.4 | 6.4 | 0.00 | 0.00 | 0.00 | 97 | 1016.0 |
| 20260905001512 | 21 | 40 | 6.4 | 6.4 | 0.00 | 0.00 | 0.00 | 97 | 1016.0 |
| 20260905001009 | 21 | 40 | 6.4 | 6.4 | 0.00 | 0.00 | 0.00 | 97 | 1016.0 |
| 20260905000507 | 21 | 90 | 4.8 | 4.8 | 0.00 | 0.00 | 0.00 | 97 | 1017.0 |
| 20260905000004 | 21 | 90 | 4.8 | 4.8 | 0.00 | 0.00 | 0.00 | 97 | 1017.0 |
| 20260904235503 | 21 | 90 | 4.8 | 4.8 | 0.00 | 0.00 | 0.00 | 97 | 1017.0 |
| 20260904235001 | 21 | 90 | 4.8 | 4.8 | 0.00 | 0.00 | 0.00 | 97 | 1017.0 |
| 20260904234500 | 21 | 90 | 4.8 | 4.8 | 0.00 | 0.00 | 0.00 | 97 | 1017.0 |
| 20260904233958 | 21 | 90 | 4.8 | 4.8 | 0.00 | 0.00 | 0.00 | 97 | 1017.0 |
| 20260904233457 | 21 | 30 | 6.4 | 6.4 | 0.00 | 0.00 | 0.00 | 97 | 1017.0 |
| 20260904232956 | 21 | 30 | 6.4 | 6.4 | 0.00 | 0.00 | 0.00 | 97 | 1017.0 |
| 20260904232454 | 21 | 30 | 6.4 | 6.4 | 0.00 | 0.00 | 0.00 | 96 | 1017.0 |
| 20260904231951 | 21 | 30 | 6.4 | 6.4 | 0.00 | 0.00 | 0.00 | 96 | 1017.0 |
| 20260904231450 | 21 | 30 | 6.4 | 6.4 | 0.00 | 0.00 | 0.00 | 97 | 1017.0 |
| 20260904230948 | 21 | 30 | 6.4 | 6.4 | 0.00 | 0.00 | 0.00 | 97 | 1017.0 |
| 20260904230447 | 21 | 30 | 6.4 | 6.4 | 0.00 | 0.00 | 0.00 | 97 | 1017.0 |
| 20260904225946 | 21 | 40 | 9.7 | 9.7 | 0.00 | 0.00 | 0.00 | 97 | 1017.0 |
| 20260904225443 | 21 | 40 | 9.7 | 9.7 | 0.00 | 0.00 | 0.00 | 97 | 1017.0 |
| 20260904224941 | 21 | 40 | 9.7 | 9.7 | 0.00 | 0.00 | 0.00 | 97 | 1017.0 |
| 20260904224439 | 21 | 40 | 9.7 | 9.7 | 0.00 | 0.00 | 0.00 | 97 | 1017.0 |
| 20260904223938 | 21 | 40 | 9.7 | 9.7 | 0.00 | 0.00 | 0.00 | 97 | 1017.0 |
| 20260904223435 | 21 | 40 | 9.7 | 9.7 | 0.00 | 0.00 | 0.00 | 97 | 1017.0 |
| 20260904222933 | 22 | 30 | 8.0 | 8.0 | 0.00 | 0.00 | 0.00 | 96 | 1017.0 |
| 20260904222431 | 22 | 30 | 8.0 | 8.0 | 0.00 | 0.00 | 0.00 | 96 | 1017.0 |
| 20260904221930 | 22 | 30 | 8.0 | 8.0 | 0.00 | 0.00 | 0.00 | 96 | 1017.0 |
| 20260904221428 | 22 | 30 | 8.0 | 8.0 | 0.00 | 0.00 | 0.00 | 96 | 1017.0 |
| 20260904220925 | 21 | 50 | 9.7 | 9.7 | 0.00 | 0.00 | 0.00 | 93 | 1017.0 |
| 20260904220425 | 21 | 50 | 9.7 | 9.7 | 0.00 | 0.00 | 0.00 | 78 | 1017.0 |
| 20260904215924 | 21 | 50 | 9.7 | 9.7 | 0.00 | 0.00 | 0.00 | 78 | 1017.0 |
| 20260904215421 | 21 | 50 | 9.7 | 9.7 | 0.00 | 0.00 | 0.00 | 78 | 1017.0 |
| 20260904214918 | 21 | 50 | 9.7 | 9.7 | 0.00 | 0.00 | 0.00 | 78 | 1017.0 |
| 20260904214416 | 21 | 50 | 9.7 | 9.7 | 0.00 | 0.00 | 0.00 | 79 | 1017.0 |
| 20260904213915 | 21 | 50 | 9.7 | 9.7 | 0.00 | 0.00 | 0.00 | 79 | 1017.0 |
| 20260904213412 | 21 | 50 | 12.9 | 12.9 | 0.00 | 0.00 | 0.00 | 82 | 1017.0 |
| 20260904212909 | 21 | 50 | 12.9 | 12.9 | 0.00 | 0.00 | 0.00 | 82 | 1017.0 |
| 20260904212409 | 21 | 50 | 12.9 | 12.9 | 0.00 | 0.00 | 0.00 | 93 | 1017.0 |
| 20260904211907 | 21 | 50 | 12.9 | 12.9 | 0.00 | 0.00 | 0.00 | 93 | 1017.0 |
| 20260904211405 | 21 | 50 | 12.9 | 12.9 | 0.00 | 0.00 | 0.00 | 79 | 1017.0 |
| 20260904210902 | 21 | 50 | 12.9 | 12.9 | 0.00 | 0.00 | 0.00 | 79 | 1017.0 |
| 20260904210401 | 22 | 60 | 14.5 | 14.5 | 0.00 | 0.00 | 0.00 | 82 | 1017.0 |
| 20260904205859 | 22 | 60 | 14.5 | 14.5 | 0.00 | 0.00 | 0.00 | 82 | 1017.0 |
| 20260904205357 | 22 | 60 | 14.5 | 14.5 | 0.00 | 0.00 | 0.00 | 93 | 1017.0 |
| 20260904204855 | 22 | 60 | 14.5 | 14.5 | 0.00 | 0.00 | 0.00 | 93 | 1017.0 |
| 20260904204353 | 22 | 60 | 14.5 | 14.5 | 0.00 | 0.00 | 0.00 | 78 | 1017.0 |
| 20260904203852 | 22 | 60 | 14.5 | 14.5 | 0.00 | 0.00 | 0.00 | 78 | 1017.0 |
| 20260904203350 | 22 | 60 | 14.5 | 14.5 | 0.00 | 0.00 | 0.00 | 78 | 1017.0 |
| 20260904202849 | 22 | 60 | 14.5 | 14.5 | 0.00 | 0.00 | 0.00 | 78 | 1017.0 |
| 20260904202347 | 22 | 60 | 14.5 | 14.5 | 0.00 | 0.00 | 0.00 | 78 | 1017.0 |
| 20260904201844 | 22 | 60 | 14.5 | 14.5 | 0.00 | 0.00 | 0.00 | 79 | 1017.0 |
| 20260904201343 | 22 | 60 | 14.5 | 14.5 | 0.00 | 0.00 | 0.00 | 79 | 1017.0 |
| 20260904200842 | 22 | 60 | 14.5 | 14.5 | 0.00 | 0.00 | 0.00 | 83 | 1017.0 |
| 20260904200340 | 22 | 60 | 14.5 | 14.5 | 0.00 | 0.00 | 0.00 | 83 | 1017.0 |
| 20260904195838 | 22 | 60 | 14.5 | 14.5 | 0.00 | 0.00 | 0.00 | 94 | 1017.0 |
| 20260904195337 | 22 | 60 | 14.5 | 14.5 | 0.00 | 0.00 | 0.00 | 94 | 1017.0 |
| 20260904194835 | 23 | 60 | 14.5 | 14.5 | 0.00 | 0.00 | 0.00 | 94 | 1017.0 |
| 20260904194332 | 23 | 60 | 14.5 | 14.5 | 0.00 | 0.00 | 0.00 | 94 | 1017.0 |
| 20260904193829 | 23 | 50 | 17.7 | 17.7 | 0.00 | 0.00 | 0.00 | 95 | 1017.0 |
| 20260904193327 | 23 | 50 | 17.7 | 17.7 | 0.00 | 0.00 | 0.00 | 95 | 1017.0 |
| 20260904192825 | 23 | 50 | 17.7 | 17.7 | 0.00 | 0.00 | 0.00 | 93 | 1017.0 |
| 20260904192324 | 23 | 50 | 17.7 | 17.7 | 0.00 | 0.00 | 0.00 | 93 | 1017.0 |
| 20260904191821 | 23 | 50 | 17.7 | 17.7 | 0.00 | 0.00 | 0.00 | 93 | 1017.0 |
| 20260904191319 | 23 | 50 | 17.7 | 17.7 | 0.00 | 0.00 | 0.00 | 93 | 1017.0 |
| 20260904190817 | 23 | 40 | 20.9 | 20.9 | 0.00 | 0.00 | 0.00 | 92 | 1017.0 |
| 20260904190315 | 23 | 40 | 20.9 | 20.9 | 0.00 | 0.00 | 0.00 | 92 | 1017.0 |
| 20260904185813 | 23 | 40 | 20.9 | 20.9 | 0.00 | 0.00 | 0.00 | 92 | 1017.0 |
| 20260904185312 | 23 | 40 | 20.9 | 20.9 | 0.00 | 0.00 | 0.00 | 92 | 1017.0 |
| 20260904184811 | 23 | 40 | 20.9 | 20.9 | 0.00 | 0.00 | 0.00 | 92 | 1017.0 |
| 20260904184309 | 23 | 40 | 20.9 | 20.9 | 0.00 | 0.00 | 0.00 | 92 | 1017.0 |
| 20260904183807 | 23 | 30 | 19.3 | 19.3 | 0.00 | 0.00 | 0.00 | 92 | 1016.0 |
| 20260904183305 | 23 | 30 | 19.3 | 19.3 | 0.00 | 0.00 | 0.00 | 92 | 1016.0 |
| 20260904182802 | 23 | 30 | 19.3 | 19.3 | 0.00 | 0.00 | 0.00 | 92 | 1016.0 |
| 20260904182301 | 23 | 30 | 19.3 | 19.3 | 0.00 | 0.00 | 0.00 | 92 | 1016.0 |
| 20260904181759 | 23 | 30 | 19.3 | 19.3 | 0.00 | 0.00 | 0.00 | 92 | 1016.0 |
| 20260904181257 | 23 | 30 | 19.3 | 19.3 | 0.00 | 0.00 | 0.00 | 92 | 1016.0 |
| 20260904180756 | 23 | 30 | 19.3 | 19.3 | 0.00 | 0.00 | 0.00 | 92 | 1016.0 |
| 20260904180255 | 23 | 20 | 20.9 | 20.9 | 0.00 | 0.00 | 0.00 | 92 | 1016.0 |
| 20260904175754 | 23 | 20 | 20.9 | 20.9 | 0.00 | 0.00 | 0.00 | 92 | 1016.0 |
| 20260904175251 | 23 | 20 | 20.9 | 20.9 | 0.00 | 0.00 | 0.00 | 92 | 1016.0 |
| 20260904174750 | 23 | 20 | 20.9 | 20.9 | 0.00 | 0.00 | 0.00 | 92 | 1016.0 |
| 20260904174249 | 23 | 20 | 20.9 | 20.9 | 0.00 | 0.00 | 0.00 | 92 | 1016.0 |
| 20260904173746 | 23 | 20 | 20.9 | 20.9 | 0.00 | 0.00 | 0.00 | 92 | 1016.0 |